• In Portugal
  • List of Countries
  • For 7 days
  • Water Temperature
  • Satellite Maps
  • Weather Map
  • Weather Widgets
  • user-avatar
    Login

    Hourly Weather Ndjbele

    Today, 11 December, Monday

    Time Temperature Precipitation Wind Pressure Humidity
    00:00 +18°C° 0 mm 0 mps 715 mmHg 47%
    01:00 +17°C° 0 mm 0 mps 715 mmHg 48%
    02:00 +17°C° 0 mm 0 mps 715 mmHg 49%
    03:00 +16°C° 0 mm 0 mps 715 mmHg 49%
    04:00 +16°C° 0 mm 0 mps 715 mmHg 50%
    05:00 +16°C° 0 mm 0 mps 715 mmHg 50%
    06:00 +18°C° 0 mm 0 mps 715 mmHg 46%
    07:00 +20°C° 0 mm 0 mps 716 mmHg 42%
    08:00 +24°C° 0 mm 1 mps 716 mmHg 38%
    09:00 +27°C° 0 mm 1 mps 717 mmHg 32%
    10:00 +30°C° 0 mm 1 mps 717 mmHg 27%
    11:00 +33°C° 0 mm 1 mps 717 mmHg 22%
    12:00 +34°C° 0 mm 1 mps 716 mmHg 21%
    13:00 +32°C° 0 mm 0 mps 716 mmHg 20%
    14:00 +33°C° 0 mm 0 mps 715 mmHg 20%
    15:00 +30°C° 0 mm 0 mps 715 mmHg 26%
    16:00 +30°C° 0 mm 1 mps 715 mmHg 33%
    17:00 +27°C° 0 mm 1 mps 714 mmHg 40%
    18:00 +26°C° 0 mm 1 mps 715 mmHg 42%
    19:00 +22°C° 0 mm 0 mps 715 mmHg 45%
    20:00 +21°C° 0 mm 0 mps 715 mmHg 48%
    21:00 +20°C° 0 mm 0 mps 715 mmHg 50%
    22:00 +20°C° 0 mm 0 mps 715 mmHg 51%
    23:00 +19°C° 0 mm 0 mps 715 mmHg 53%

    Tomorrow, 12 December, Tuesday

    Time Temperature Precipitation Wind Pressure Humidity
    00:00 +19°C° 0 mm 0 mps 715 mmHg 57%
    01:00 +18°C° 0 mm 0 mps 714 mmHg 61%
    02:00 +18°C° 0 mm 0 mps 714 mmHg 65%
    03:00 +17°C° 0 mm 0 mps 714 mmHg 68%
    04:00 +17°C° 0 mm 0 mps 714 mmHg 71%
    05:00 +17°C° 0 mm 0 mps 714 mmHg 74%
    06:00 +19°C° 0 mm 0 mps 715 mmHg 69%
    07:00 +21°C° 0 mm 0 mps 716 mmHg 64%
    08:00 +23°C° 0 mm 0 mps 716 mmHg 60%
    09:00 +26°C° 0 mm 0 mps 717 mmHg 51%
    10:00 +28°C° 0 mm 0 mps 717 mmHg 43%
    11:00 +33°C° 0 mm 1 mps 717 mmHg 34%
    12:00 +33°C° 0 mm 1 mps 716 mmHg 32%
    13:00 +34°C° 0 mm 1 mps 716 mmHg 30%
    14:00 +34°C° 0 mm 1 mps 715 mmHg 28%
    15:00 +32°C° 0 mm 1 mps 715 mmHg 34%
    16:00 +30°C° 0 mm 1 mps 715 mmHg 41%
    17:00 +28°C° 0 mm 1 mps 714 mmHg 48%
    18:00 +27°C° 0 mm 1 mps 715 mmHg 51%
    19:00 +26°C° 0 mm 1 mps 715 mmHg 54%
    20:00 +23°C° 0 mm 0 mps 716 mmHg 57%
    21:00 +22°C° 0 mm 0 mps 716 mmHg 61%
    22:00 +22°C° 0 mm 0 mps 716 mmHg 65%
    23:00 +21°C° 0 mm 0 mps 716 mmHg 69%

    Day after tomorrow, 13 December, Wednesday

    Time Temperature Precipitation Wind Pressure Humidity
    00:00 +21°C° 0 mm 0 mps 715 mmHg 72%
    01:00 +21°C° 0 mm 0 mps 715 mmHg 74%
    02:00 +21°C° 0 mm 0 mps 715 mmHg 77%
    03:00 +21°C° 0 mm 0 mps 715 mmHg 80%
    04:00 +21°C° 0 mm 0 mps 715 mmHg 84%
    05:00 +20°C° 0 mm 0 mps 715 mmHg 87%
    06:00 +22°C° 0 mm 0 mps 715 mmHg 80%
    07:00 +23°C° 0 mm 0 mps 716 mmHg 74%
    08:00 +25°C° 0 mm 0 mps 716 mmHg 68%
    09:00 +27°C° 0 mm 0 mps 716 mmHg 57%
    10:00 +30°C° 0 mm 0 mps 716 mmHg 47%
    11:00 +33°C° 0 mm 0 mps 717 mmHg 37%
    12:00 +33°C° 0 mm 0 mps 716 mmHg 35%
    13:00 +34°C° 0 mm 0 mps 715 mmHg 32%
    14:00 +35°C° 0 mm 0 mps 715 mmHg 30%
    15:00 +32°C° 0 mm 0 mps 714 mmHg 36%
    16:00 +30°C° 0 mm 0 mps 714 mmHg 43%
    17:00 +30°C° 0 mm 1 mps 714 mmHg 49%
    18:00 +28°C° 0 mm 1 mps 715 mmHg 52%
    19:00 +25°C° 0 mm 0 mps 715 mmHg 56%
    20:00 +24°C° 0 mm 0 mps 716 mmHg 60%
    21:00 +23°C° 0 mm 0 mps 716 mmHg 65%
    22:00 +22°C° 0 mm 0 mps 716 mmHg 69%
    23:00 +24°C° 0 mm 1 mps 716 mmHg 74%

    14 December, Thursday

    Time Temperature Precipitation Wind Pressure Humidity
    00:00 +23°C° 0 mm 1 mps 715 mmHg 80%
    01:00 +23°C° 0 mm 1 mps 715 mmHg 86%
    02:00 +20°C° 0 mm 0 mps 715 mmHg 93%
    03:00 +20°C° 0 mm 0 mps 715 mmHg 94%
    04:00 +20°C° 0 mm 0 mps 715 mmHg 96%
    05:00 +20°C° 0 mm 0 mps 715 mmHg 97%
    06:00 +21°C° 0 mm 0 mps 716 mmHg 92%
    07:00 +22°C° 0 mm 0 mps 716 mmHg 87%
    08:00 +25°C° 0 mm 1 mps 717 mmHg 82%
    09:00 +25°C° 0 mm 0 mps 717 mmHg 75%
    10:00 +27°C° 0 mm 0 mps 717 mmHg 68%
    11:00 +28°C° 0 mm 0 mps 716 mmHg 60%
    12:00 +30°C° 0 mm 0 mps 716 mmHg 54%
    13:00 +31°C° 0 mm 0 mps 715 mmHg 49%
    14:00 +32°C° 0 mm 0 mps 714 mmHg 43%
    15:00 +31°C° 0 mm 0 mps 714 mmHg 49%
    16:00 +29°C° 0 mm 0 mps 714 mmHg 54%
    17:00 +29°C° 0 mm 1 mps 714 mmHg 60%
    18:00 +28°C° 0 mm 1 mps 715 mmHg 66%
    19:00 +26°C° 0 mm 1 mps 715 mmHg 71%
    20:00 +25°C° 0 mm 1 mps 716 mmHg 77%
    21:00 +24°C° 0.1 mm 1 mps 716 mmHg 82%
    22:00 +22°C° 0.1 mm 0 mps 715 mmHg 87%
    23:00 +21°C° 0.1 mm 0 mps 715 mmHg 92%

    15 December, Friday

    Time Temperature Precipitation Wind Pressure Humidity
    00:00 +21°C° 0.2 mm 0 mps 715 mmHg 94%
    01:00 +21°C° 0.2 mm 0 mps 715 mmHg 96%
    02:00 +22°C° 0.2 mm 1 mps 715 mmHg 98%
    03:00 +22°C° 0.1 mm 1 mps 715 mmHg 98%
    04:00 +22°C° 0.1 mm 1 mps 715 mmHg 98%
    05:00 +22°C° 0.1 mm 1 mps 715 mmHg 98%
    06:00 +21°C° 0 mm 0 mps 716 mmHg 94%
    07:00 +22°C° 0 mm 0 mps 717 mmHg 89%
    08:00 +23°C° 0 mm 0 mps 717 mmHg 85%
    09:00 +25°C° 0 mm 0 mps 717 mmHg 74%
    10:00 +28°C° 0 mm 0 mps 717 mmHg 64%
    11:00 +30°C° 0 mm 0 mps 717 mmHg 53%
    12:00 +31°C° 0 mm 0 mps 716 mmHg 47%
    13:00 +32°C° 0 mm 0 mps 715 mmHg 42%
    14:00 +35°C° 0 mm 1 mps 714 mmHg 36%
    15:00 +33°C° 0 mm 1 mps 714 mmHg 41%
    16:00 +29°C° 0 mm 0 mps 714 mmHg 46%
    17:00 +28°C° 0 mm 0 mps 714 mmHg 51%
    18:00 +26°C° 0 mm 0 mps 714 mmHg 55%
    19:00 +25°C° 0 mm 0 mps 715 mmHg 59%
    20:00 +24°C° 0 mm 0 mps 716 mmHg 64%
    21:00 +25°C° 0 mm 1 mps 716 mmHg 71%
    22:00 +24°C° 0 mm 1 mps 716 mmHg 78%
    23:00 +23°C° 0 mm 1 mps 716 mmHg 86%

    16 December, Saturday

    Time Temperature Precipitation Wind Pressure Humidity
    00:00 +21°C° 0 mm 0 mps 715 mmHg 90%
    01:00 +20°C° 0 mm 0 mps 715 mmHg 94%
    02:00 +20°C° 0 mm 0 mps 715 mmHg 98%
    03:00 +20°C° 0 mm 0 mps 715 mmHg 98%
    04:00 +20°C° 0 mm 0 mps 715 mmHg 97%
    05:00 +20°C° 0 mm 0 mps 716 mmHg 97%
    06:00 +21°C° 0 mm 0 mps 716 mmHg 91%
    07:00 +23°C° 0 mm 0 mps 717 mmHg 84%
    08:00 +24°C° 0 mm 0 mps 718 mmHg 78%
    09:00 +26°C° 0 mm 0 mps 717 mmHg 66%
    10:00 +29°C° 0 mm 0 mps 717 mmHg 55%
    11:00 +31°C° 0 mm 0 mps 717 mmHg 43%
    12:00 +32°C° 0 mm 0 mps 716 mmHg 39%
    13:00 +34°C° 0 mm 1 mps 716 mmHg 36%
    14:00 +35°C° 0 mm 1 mps 715 mmHg 32%
    15:00 +33°C° 0 mm 1 mps 715 mmHg 38%
    16:00 +31°C° 0 mm 1 mps 715 mmHg 44%
    17:00 +29°C° 0 mm 1 mps 715 mmHg 50%
    18:00 +28°C° 0 mm 1 mps 716 mmHg 57%
    19:00 +26°C° 0 mm 1 mps 716 mmHg 64%
    20:00 +24°C° 0 mm 1 mps 716 mmHg 71%
    21:00 +23°C° 0 mm 1 mps 716 mmHg 78%
    22:00 +23°C° 0 mm 1 mps 716 mmHg 85%
    23:00 +20°C° 0 mm 0 mps 716 mmHg 92%
    Show more